When you browse on this site, cookies collect data to enhance your experience and personalize the content and advertising you see.
Visit our Privacy Policy to learn more. By continuing to use the site, you agree to this use of cookies and data.
  • En Estados Unidos
  • Lista de países
  • Para 7 días
  • Temperatura del agua
  • El tiempo en el mapa
  • Informadores
  • user-avatar
    Iniciar sesión

    Tiempo cada hora Frankfort

    Hoy, 25 Agosto, Domingo

    Tiempo Temperatura Precipitaciones Viento Presión Humedad
    00:00 +17°C° 0 mm 4 mps 744 mmHg 78%
    01:00 +17°C° 0 mm 4 mps 744 mmHg 81%
    02:00 +16°C° 0 mm 3 mps 743 mmHg 84%
    03:00 +16°C° 0 mm 3 mps 743 mmHg 86%
    04:00 +16°C° 0 mm 3 mps 743 mmHg 86%
    05:00 +16°C° 0 mm 3 mps 743 mmHg 86%
    06:00 +16°C° 0 mm 3 mps 743 mmHg 86%
    07:00 +17°C° 0 mm 3 mps 743 mmHg 81%
    08:00 +19°C° 0 mm 3 mps 743 mmHg 76%
    09:00 +21°C° 0 mm 3 mps 743 mmHg 71%
    10:00 +24°C° 0 mm 3 mps 743 mmHg 67%
    11:00 +26°C° 0 mm 3 mps 743 mmHg 63%
    12:00 +27°C° 0 mm 3 mps 743 mmHg 59%
    13:00 +28°C° 0 mm 3 mps 742 mmHg 59%
    14:00 +28°C° 0 mm 3 mps 742 mmHg 58%
    15:00 +28°C° 0 mm 3 mps 741 mmHg 58%
    16:00 +27°C° 0 mm 2 mps 741 mmHg 63%
    17:00 +26°C° 0 mm 2 mps 741 mmHg 69%
    18:00 +25°C° 0 mm 2 mps 741 mmHg 74%
    19:00 +24°C° 0 mm 2 mps 741 mmHg 75%
    20:00 +24°C° 0 mm 2 mps 741 mmHg 76%
    21:00 +23°C° 0 mm 2 mps 741 mmHg 77%
    22:00 +23°C° 0.3 mm 2 mps 741 mmHg 83%
    23:00 +21°C° 0.3 mm 2 mps 741 mmHg 88%

    Mañana, 26 Agosto, Lunes

    Tiempo Temperatura Precipitaciones Viento Presión Humedad
    00:00 +21°C° 0.3 mm 2 mps 741 mmHg 94%
    01:00 +21°C° 0.6 mm 2 mps 740 mmHg 95%
    02:00 +21°C° 0.6 mm 2 mps 740 mmHg 96%
    03:00 +21°C° 0.6 mm 2 mps 740 mmHg 98%
    04:00 +21°C° 1.3 mm 2 mps 740 mmHg 98%
    05:00 +21°C° 1.3 mm 3 mps 740 mmHg 97%
    06:00 +21°C° 1.3 mm 3 mps 741 mmHg 97%
    07:00 +21°C° 0.5 mm 3 mps 741 mmHg 97%
    08:00 +21°C° 0.5 mm 3 mps 741 mmHg 97%
    09:00 +20°C° 0.5 mm 4 mps 741 mmHg 96%
    10:00 +20°C° 1.6 mm 4 mps 741 mmHg 96%
    11:00 +21°C° 1.6 mm 4 mps 741 mmHg 96%
    12:00 +21°C° 1.6 mm 4 mps 741 mmHg 96%
    13:00 +20°C° 2.5 mm 4 mps 740 mmHg 97%
    14:00 +20°C° 2.5 mm 4 mps 740 mmHg 97%
    15:00 +20°C° 2.5 mm 4 mps 740 mmHg 97%
    16:00 +20°C° 1.9 mm 4 mps 740 mmHg 97%
    17:00 +20°C° 1.9 mm 4 mps 740 mmHg 97%
    18:00 +20°C° 1.9 mm 4 mps 740 mmHg 97%
    19:00 +20°C° 0.2 mm 4 mps 740 mmHg 96%
    20:00 +20°C° 0.2 mm 4 mps 739 mmHg 96%
    21:00 +20°C° 0.2 mm 4 mps 739 mmHg 96%
    22:00 +20°C° 0 mm 4 mps 739 mmHg 96%
    23:00 +20°C° 0 mm 4 mps 739 mmHg 96%

    Pasado mañana, 27 Agosto, Martes

    Tiempo Temperatura Precipitaciones Viento Presión Humedad
    00:00 +20°C° 0 mm 3 mps 739 mmHg 96%
    01:00 +20°C° 0 mm 3 mps 739 mmHg 95%
    02:00 +20°C° 0 mm 4 mps 739 mmHg 95%
    03:00 +21°C° 0 mm 4 mps 739 mmHg 95%
    04:00 +21°C° 0 mm 4 mps 739 mmHg 94%
    05:00 +21°C° 0 mm 4 mps 739 mmHg 94%
    06:00 +21°C° 0 mm 4 mps 739 mmHg 94%
    07:00 +23°C° 0 mm 5 mps 739 mmHg 90%
    08:00 +25°C° 0 mm 5 mps 739 mmHg 86%
    09:00 +27°C° 0 mm 5 mps 739 mmHg 82%
    10:00 +27°C° 0.6 mm 5 mps 739 mmHg 82%
    11:00 +28°C° 0.6 mm 5 mps 739 mmHg 83%
    12:00 +28°C° 0.6 mm 6 mps 738 mmHg 83%
    13:00 +28°C° 0.9 mm 5 mps 738 mmHg 84%
    14:00 +28°C° 0.9 mm 5 mps 738 mmHg 84%
    15:00 +28°C° 0.9 mm 5 mps 738 mmHg 85%
    16:00 +27°C° 0.5 mm 4 mps 738 mmHg 88%
    17:00 +26°C° 0.5 mm 3 mps 738 mmHg 90%
    18:00 +25°C° 0.5 mm 2 mps 738 mmHg 93%
    19:00 +25°C° 0 mm 2 mps 739 mmHg 94%
    20:00 +24°C° 0 mm 2 mps 739 mmHg 95%
    21:00 +23°C° 0 mm 2 mps 740 mmHg 95%
    22:00 +21°C° 0 mm 2 mps 740 mmHg 95%
    23:00 +20°C° 0 mm 2 mps 740 mmHg 95%

    28 Agosto, Miércoles

    Tiempo Temperatura Precipitaciones Viento Presión Humedad
    00:00 +19°C° 0 mm 2 mps 740 mmHg 96%
    01:00 +18°C° 0 mm 2 mps 740 mmHg 96%
    02:00 +18°C° 0 mm 2 mps 740 mmHg 96%
    03:00 +17°C° 0 mm 2 mps 740 mmHg 96%
    04:00 +18°C° 0 mm 1 mps 741 mmHg 95%
    05:00 +18°C° 0 mm 1 mps 741 mmHg 94%
    06:00 +18°C° 0 mm 1 mps 742 mmHg 94%
    07:00 +20°C° 0 mm 1 mps 742 mmHg 86%
    08:00 +22°C° 0 mm 1 mps 742 mmHg 79%
    09:00 +24°C° 0 mm 1 mps 742 mmHg 72%
    10:00 +26°C° 0 mm 2 mps 742 mmHg 67%
    11:00 +27°C° 0 mm 2 mps 742 mmHg 62%
    12:00 +28°C° 0 mm 3 mps 742 mmHg 57%
    13:00 +28°C° 0 mm 3 mps 742 mmHg 58%
    14:00 +28°C° 0 mm 3 mps 741 mmHg 59%
    15:00 +28°C° 0 mm 4 mps 741 mmHg 60%
    16:00 +26°C° 0 mm 3 mps 741 mmHg 66%
    17:00 +25°C° 0 mm 3 mps 741 mmHg 71%
    18:00 +22°C° 0 mm 3 mps 741 mmHg 77%
    19:00 +20°C° 0 mm 3 mps 742 mmHg 77%
    20:00 +19°C° 0 mm 2 mps 742 mmHg 78%
    21:00 +17°C° 0 mm 2 mps 743 mmHg 79%
    22:00 +17°C° 0 mm 2 mps 743 mmHg 82%
    23:00 +16°C° 0 mm 2 mps 742 mmHg 85%

    29 Agosto, Jueves

    Tiempo Temperatura Precipitaciones Viento Presión Humedad
    00:00 +15°C° 0 mm 1 mps 742 mmHg 88%
    01:00 +15°C° 0 mm 1 mps 743 mmHg 89%
    02:00 +15°C° 0 mm 1 mps 743 mmHg 91%
    03:00 +14°C° 0 mm 1 mps 743 mmHg 92%
    04:00 +15°C° 0 mm 1 mps 743 mmHg 91%
    05:00 +15°C° 0 mm 1 mps 743 mmHg 90%
    06:00 +14°C° 0 mm 0 mps 744 mmHg 90%
    07:00 +18°C° 0 mm 1 mps 744 mmHg 82%
    08:00 +21°C° 0 mm 1 mps 744 mmHg 74%
    09:00 +23°C° 0 mm 1 mps 745 mmHg 66%
    10:00 +25°C° 0 mm 1 mps 745 mmHg 60%
    11:00 +24°C° 0 mm 0 mps 744 mmHg 55%
    12:00 +25°C° 0 mm 0 mps 744 mmHg 49%
    13:00 +27°C° 0 mm 1 mps 744 mmHg 49%
    14:00 +27°C° 0 mm 1 mps 743 mmHg 48%
    15:00 +27°C° 0 mm 1 mps 743 mmHg 48%
    16:00 +25°C° 0 mm 1 mps 743 mmHg 55%
    17:00 +23°C° 0 mm 1 mps 742 mmHg 62%
    18:00 +19°C° 0 mm 0 mps 742 mmHg 69%
    19:00 +18°C° 0 mm 0 mps 742 mmHg 71%
    20:00 +17°C° 0 mm 0 mps 743 mmHg 73%
    21:00 +16°C° 0 mm 0 mps 743 mmHg 75%
    22:00 +18°C° 0 mm 1 mps 743 mmHg 76%
    23:00 +18°C° 0 mm 1 mps 742 mmHg 77%

    30 Agosto, Viernes

    Tiempo Temperatura Precipitaciones Viento Presión Humedad
    00:00 +16°C° 0 mm 1 mps 742 mmHg 78%
    01:00 +16°C° 0 mm 1 mps 742 mmHg 80%
    02:00 +16°C° 0 mm 1 mps 742 mmHg 83%
    03:00 +15°C° 0 mm 1 mps 742 mmHg 85%
    04:00 +16°C° 0 mm 2 mps 742 mmHg 84%
    05:00 +16°C° 0 mm 2 mps 742 mmHg 84%
    06:00 +16°C° 0 mm 2 mps 743 mmHg 84%
    07:00 +19°C° 0 mm 2 mps 743 mmHg 77%
    08:00 +21°C° 0 mm 2 mps 743 mmHg 71%
    09:00 +24°C° 0 mm 3 mps 743 mmHg 64%
    10:00 +26°C° 0 mm 3 mps 743 mmHg 61%
    11:00 +27°C° 0 mm 3 mps 743 mmHg 59%
    12:00 +29°C° 0 mm 3 mps 743 mmHg 56%
    13:00 +29°C° 0 mm 3 mps 742 mmHg 57%
    14:00 +29°C° 0 mm 3 mps 742 mmHg 59%
    15:00 +30°C° 0 mm 3 mps 742 mmHg 60%
    16:00 +28°C° 0 mm 2 mps 742 mmHg 67%
    17:00 +27°C° 0 mm 2 mps 742 mmHg 75%
    18:00 +25°C° 0 mm 1 mps 742 mmHg 82%
    19:00 +24°C° 0 mm 1 mps 742 mmHg 86%
    20:00 +23°C° 0 mm 1 mps 743 mmHg 89%
    21:00 +22°C° 0 mm 1 mps 743 mmHg 93%
    22:00 +22°C° 0 mm 1 mps 743 mmHg 94%
    23:00 +22°C° 0 mm 1 mps 743 mmHg 95%
    Mostrar más